Weather Roundup
Issued by NWS Springfield, MO

Home | Current Version | Previous Version | Text Only | Print | Product List | Glossary On
Versions: 1 2 3 4 5 6 7 8 9 10 11 12 13 14 15 16 17 18 19 20 21 22 23 24 25 26 27 28 29 30 31 32 33 34 35 36 37 38 39 40 41 42 43 44 45 46 47 48 49 50
478
NZUS99 KSGF 260007
HRRSGF

HOURLY WEATHER
NATIONAL WEATHER SERVICE SPRINGFIELD MO
700 PM CDT SUN SEP 25 2016

......SGF CWA......

CITY           SKY/WX    TMP DP  RH WIND       PRES   REMARKS
SPRINGFIELD    LGT RAIN  71  67  87 NW3       30.11R
6HR MIN TEMP:  70; 6HR MAX TEMP:  84; 6HR PCP: TRACE;

JOPLIN         LGT RAIN  65  62  90 NE8       30.14R
6HR MIN TEMP:  65; 6HR MAX TEMP:  79; 6HR PCP:  0.08;

WEST PLAINS    PTCLDY    80  68  66 CALM      30.06R
6HR MIN TEMP:  80; 6HR MAX TEMP:  88;

ROLLA          PTCLDY    75  68  78 NW13      30.04R
6HR MIN TEMP:  75; 6HR MAX TEMP:  87; 6HR PCP:  0.08;

OSAGE BEACH    CLOUDY    74  67  78 NW3       30.08R
BRANSON        MOCLDY    75  68  78 NW12      30.07R

......SURROUNDING SGF CWA......

CITY           SKY/WX    TMP DP  RH WIND       PRES   REMARKS
CHANUTE        CLOUDY    63  59  87 NW5       30.17R
PARSONS        CLOUDY    62  58  86 N5        30.18R
COFFEYVILLE    CLOUDY    62  58  86 NW10      30.16R
EMPORIA        MOCLDY    65  58  78 CALM      30.17R
GROVE OK       DRIZZLE   68  64  88 N5        30.13S
ROGERS AR      CLOUDY    71  69  93 N8        30.11R
SILOAM SPRINGS CLOUDY   N/A N/A N/A N14         N/A
HARRISON AR    MOCLDY    78  68  71 NW12G22   30.06R
NEAR YELLVILLE CLEAR     82  66  57 CALM      29.99S

......KANSAS AND MISSOURI......

CITY           SKY/WX    TMP DP  RH WIND       PRES   REMARKS
KANSAS CTY INT CLOUDY    63  56  78 W5        30.14S
DOWNTOWN KC    CLOUDY    66  56  70 W5        30.14R
COLUMBIA       CLOUDY    73  64  73 NW15      30.07R
SEDALIA        CLOUDY    65  55  70 NW12      30.13R
ST JOSEPH      CLOUDY    65  56  72 W5        30.14R
ST LOUIS       MOCLDY    85  66  53 W9        29.99S
SPIRIT OF STL  CLOUDY    80  70  71 W7        29.98R
KIRKSVILLE     CLOUDY    64  56  75 W8        30.10R
WICHITA        CLOUDY    68  52  56 N7        30.19R
TOPEKA         CLOUDY    67  58  72 CALM      30.15R HAZE
OLATHE         CLOUDY    63  56  78 NW5       30.14S

......TENNESSEE......

CITY           SKY/WX    TMP DP  RH WIND       PRES   REMARKS
MEMPHIS        PTCLDY    89  65  44 N6        29.97R HX  91
NASHVILLE      PTCLDY    85  62  46 N3        30.01S

......ARKANSAS.......

CITY           SKY/WX    TMP DP  RH WIND       PRES   REMARKS
FAYETTEVILLE   CLOUDY    72  71  97 NW10      30.09R
FT SMITH       MOCLDY    79  67  66 N13       30.02R
LITTLE ROCK    PTCLDY    88  66  48 SW6       29.98R HX  90

......OKLAHOMA.......

CITY           SKY/WX    TMP DP  RH WIND       PRES   REMARKS
TULSA          LGT RAIN  63  63 100 N9        30.15R
PONCA CITY     CLOUDY    65  54  67 N6        30.18R
MCALESTER      LGT RAIN  71  68  90 N12G22    30.10R
OKLAHOMA CITY  CLOUDY    65  54  67 N14       30.17R

......IOWA............

CITY           SKY/WX    TMP DP  RH WIND       PRES   REMARKS
DES MOINES     MOCLDY    65  48  54 NW16G25   30.09R
QUAD CITIES    PTCLDY    69  55  60 W16G25    30.00R

......ILLINOIS........

CITY           SKY/WX    TMP DP  RH WIND       PRES   REMARKS
QUINCY         PTCLDY    74  65  73 W12       30.02R
CHICAGO        CLOUDY    76  69  79 CALM      29.90R




USA.gov is the U.S. government's official web portal to all federal, state and local government web resources and services.